[[{"header":{"parameterUnit":"m.s-1","parameterCategory":1,"la1":30.2991,"la2":30.254,"lo1":-89.0895,"lo2":-89.0444,"dy":0.0017,"dx":0.0017,"nx":28,"ny":28,"refTime":"2023-11-12T03:00:00:Z","depth":0,"parameterNumber":2,"parameterNumberName":"U-component_of_WINDS"},"data":[0,0,0,0,0,0,0,0,0,0,0,0,0,0,0,0,0,0,0,0,0,0,0,0,0,0,0,0,0,0,0,0,0,0,0,0,0,0,0,0,0,0,0,0,0,0,0,0,0,0,0,0,0,0,0,0,0,0,-4.9263,-4.9263,0,-4.9297,-4.9298,-4.9298,-4.9152,-4.9147,-4.9143,-4.9139,-4.9176,-4.9181,-4.9186,0,0,0,0,0,0,0,0,0,0,0,0,0,-4.9072,-4.9076,-4.9263,-4.9263,-4.9264,-4.9297,-4.9298,-4.9298,-4.9152,-4.9147,-4.9142,-4.9137,-4.9175,-4.9181,-4.9187,0,0,0,0,0,0,0,0,0,0,0,0,0,-4.9136,-4.9078,-4.9263,-4.9195,-4.9189,-4.9297,-4.9298,-4.9298,-4.9153,-4.9147,-4.914,-4.9134,-4.9173,-4.918,-4.9188,-4.9363,0,0,-4.9211,-4.9214,0,0,0,0,0,0,0,0,-4.9132,-4.9143,-4.9204,-4.92,-4.9193,-4.9213,-4.9244,-4.932,-4.9155,-4.9167,-4.9139,-4.9131,-4.9194,-4.9199,-4.922,-4.9365,-4.9367,-4.9211,-4.9216,-4.9219,-4.9221,0,0,0,0,0,0,0,-4.9128,-4.9141,-4.9276,-4.9205,-4.9199,-4.9163,-4.9165,-4.9258,-4.9216,-4.9165,-4.9155,-4.9161,-4.919,-4.9213,-4.922,-4.9367,-4.9211,-4.9218,-4.9222,-4.9225,-4.9659,-4.9666,0,0,0,0,0,0,-4.9133,-4.9138,-4.9275,-4.9277,-4.9146,-4.9172,-4.9174,-4.9214,-4.9215,-4.9209,-4.9166,-4.9154,-4.9204,-4.9211,-4.9221,-4.9428,-4.9219,-4.9226,-4.923,-4.9652,-4.9661,-4.9668,0,0,0,0,0,0,-4.9129,-4.9146,-4.9274,-4.9205,-4.9218,-4.9182,-4.9228,-4.9218,-4.9241,-4.9216,-4.9208,-4.9198,-4.9199,-4.921,-4.9329,-4.9427,-4.9229,-4.9236,-4.9644,-4.9655,-4.9665,-4.9843,0,0,0,0,0,0,-4.9124,-4.9146,-4.9212,-4.9207,-4.9223,-4.9382,-4.9234,-4.9223,-4.9254,-4.9238,-4.9243,-4.9238,-4.9195,-4.9319,-4.9337,-4.9434,-4.9242,-4.9635,-4.9649,-4.9661,-4.9829,-4.9859,-4.9884,0,0,0,0,0,-4.9118,-4.9261,-4.9216,-4.9233,-4.9304,-4.9387,-4.9396,-4.9343,-4.9262,-4.9329,-4.9313,-4.9238,-4.9413,-4.9332,-4.9351,-4.9452,-4.9629,-4.9645,-4.966,-4.9816,-4.9853,-4.9884,0,0,0,0,0,0,-4.9278,-4.9259,-4.9209,-4.9354,-4.9374,-4.9363,-4.9445,-4.9384,-4.9427,-4.941,-4.9343,-4.9345,-4.9476,-4.9475,-4.9386,-4.9623,-4.9507,-4.9527,-4.9619,-4.9654,-4.9681,-4.968,-4.9248,0,0,0,0,0,-4.933,-4.9399,-4.9378,-4.9509,-4.9521,-4.9482,-4.9516,-4.9473,-4.9491,-4.9498,-4.9491,-4.9511,-4.9571,-4.9612,-4.9665,-4.9827,-4.9827,-4.9906,-4.9934,-4.9957,-4.9976,-5.0063,-5.0099,-4.972,-4.972,-4.972,0,0,-4.9439,-4.9437,-4.9485,-4.9541,-4.9551,-4.9625,-4.949,-4.9573,-4.9627,-4.9511,-4.9623,-4.9619,-4.9637,-4.9779,-4.9841,-4.9782,-5.008,-4.9977,-4.9996,-5.0002,-5.0083,-5.0119,-5.0151,-4.9731,-4.9729,-4.9727,0,0,-4.9675,-4.968,-4.979,-4.9803,-4.9819,-4.9792,-4.9819,-4.9817,-4.9809,-4.992,-4.9836,-4.9899,-5.0003,-5.002,-5.0042,-5.0286,-5.0219,-5.0305,-5.0452,-5.0538,-5.0567,-5.0594,-5.0682,-5.0715,-5.0323,-5.0324,-5.0324,0,-4.9809,-4.9916,-4.9854,-4.9944,-4.9972,-4.987,-4.9981,-4.9996,-5.003,-5.0053,-4.9986,-5.0115,-5.012,-5.0265,-5.0324,-5.0345,-5.0375,-5.0305,-5.0568,-5.0593,-5.0617,-5.0701,-5.0734,-5.0334,-5.0333,-5.0332,-5.0331,0,-5.008,-5.0155,-5.0242,-5.0277,-5.0315,-5.0415,-5.037,-5.0415,-5.0369,-5.035,-5.0465,-5.0467,-5.052,-5.0551,-5.0507,-5.0691,-5.0654,-5.0579,-5.0462,-5.0665,-5.0743,-5.0774,-5.0349,-5.0346,-5.0343,-5.034,0,0,-5.0419,-5.0419,-5.0452,-5.0467,-5.0478,-5.0536,-5.0631,-5.0682,-5.0724,-5.075,-5.083,-5.092,-5.0851,-5.0877,-5.0834,-5.0909,-5.1104,-5.0824,-5.0824,-5.0878,-5.1309,-5.1367,-5.1405,-5.1059,-5.1064,-5.1069,-5.1308,0,-5.0653,-5.0816,-5.0764,-5.093,-5.1,-5.0903,-5.0987,-5.1003,-5.0988,-5.1045,-5.1027,-5.1093,-5.0996,-5.1011,-5.108,-5.1066,-5.119,-5.1047,-5.1134,-5.1138,-5.1135,-5.1445,-5.1507,-5.1732,-5.1338,-5.1343,-5.1346,0,-5.0947,-5.0985,-5.1158,-5.1158,-5.1185,-5.1262,-5.1305,-5.136,-5.1377,-5.136,-5.139,-5.1331,-5.1426,-5.1307,-5.1438,-5.1342,-5.1374,-5.1373,-5.138,-5.1388,-5.1256,-5.1464,-5.1802,-5.1837,-5.1393,-5.139,-5.1386,0,-5.118,-5.1274,-5.139,-5.1406,-5.1408,-5.1464,-5.1468,-5.1478,-5.1513,-5.155,-5.1572,-5.1621,-5.1649,-5.1688,-5.1645,-5.1562,-5.1783,-5.166,-5.1774,-5.1775,-5.1826,-5.1824,-5.2178,-5.1844,-5.1843,-5.1843,-5.1842,0,-5.1447,-5.1558,-5.1495,-5.1567,-5.1688,-5.1627,-5.1749,-5.1741,-5.1752,-5.1821,-5.174,-5.1807,-5.1744,-5.1806,-5.1773,-5.1888,-5.19,-5.189,-5.1881,-5.1899,-5.1901,-5.1921,-5.1905,-5.1852,-5.185,-5.1848,-5.1847,0,-5.1729,-5.1691,-5.1812,-5.1804,-5.1805,-5.1895,-5.1888,-5.1955,-5.1932,-5.2021,-5.2039,-5.2005,-5.2073,-5.2033,-5.2103,-5.2081,-5.2231,-5.2199,-5.2226,-5.2218,-5.2335,-5.2325,-5.2715,-5.2764,-5.2397,-5.2401,-5.2404,0,-5.1903,-5.1986,-5.1987,-5.2027,-5.2036,-5.2102,-5.2137,-5.208,-5.212,-5.2145,-5.221,-5.2271,-5.2317,-5.2431,-5.2414,-5.2467,-5.2437,-5.257,-5.2444,-5.2461,-5.2442,-5.2438,-5.2447,-5.2596,-5.26,-5.2604,-5.2606,0,-5.2217,-5.2195,-5.2247,-5.2295,-5.2338,-5.2373,-5.2401,-5.2439,-5.2382,-5.2431,-5.25,-5.2536,-5.2607,-5.267,-5.2715,-5.2719,-5.2656,-5.2646,-5.2675,-5.2696,-5.2709,-5.2706,-5.2297,-5.2638,-5.2634,-5.2632,-5.263,-5.2629,-5.2452,-5.2521,-5.2533,-5.2595,-5.261,-5.2638,-5.2701,-5.2686,-5.2742,-5.2796,-5.2759,-5.2841,-5.2856,-5.2911,-5.2924,-5.2988,-5.2934,-5.2977,-5.2988,-5.3,-5.3017,-5.2697,-5.2995,-5.2994,-5.2994,-5.2993,-5.2992,0,-5.2763,-5.2766,-5.2824,-5.2865,-5.2915,-5.2847,-5.2875,-5.2921,-5.2994,-5.3013,-5.3061,-5.3141,-5.3201,-5.3188,-5.3243,-5.3297,-5.3269,-5.3314,-5.331,-5.3313,-5.306,-5.303,-5.3336,-5.3336,-5.3336,-5.3335,-5.3335,-5.3335,-5.2931,-5.3046,-5.3025,-5.3147,-5.3148,-5.3228,-5.325,-5.3276,-5.3291,-5.3384,-5.3434,-5.3424,-5.3431,-5.3486,-5.3539,-5.3534,-5.3559,-5.3615,-5.36,-5.3364,-5.333,-5.3298,-5.327,-5.3621,-5.3621,-5.3847,-5.3849,-5.3851]},{"header":{"parameterUnit":"m.s-1","parameterCategory":1,"la1":30.2991,"la2":30.254,"lo1":-89.0895,"lo2":-89.0444,"dy":0.0017,"dx":0.0017,"nx":28,"ny":28,"refTime":"2023-11-12T03:00:00:Z","depth":0,"parameterNumber":3,"parameterNumberName":"V-component_of_WINDS"},"data":[0,0,0,0,0,0,0,0,0,0,0,0,0,0,0,0,0,0,0,0,0,0,0,0,0,0,0,0,0,0,0,0,0,0,0,0,0,0,0,0,0,0,0,0,0,0,0,0,0,0,0,0,0,0,0,0,0,0,-3.8899,-3.8899,0,-3.8864,-3.8863,-3.8863,-3.8786,-3.8784,-3.8782,-3.8781,-3.8745,-3.8746,-3.8746,0,0,0,0,0,0,0,0,0,0,0,0,0,-3.89,-3.89,-3.8899,-3.8899,-3.8898,-3.8864,-3.8863,-3.8863,-3.8786,-3.8784,-3.8782,-3.878,-3.8745,-3.8746,-3.8747,0,0,0,0,0,0,0,0,0,0,0,0,0,-3.8886,-3.89,-3.8899,-3.8856,-3.8851,-3.8864,-3.8863,-3.8863,-3.8786,-3.8784,-3.8781,-3.8779,-3.8745,-3.8746,-3.8747,-3.8799,0,0,-3.8749,-3.8749,0,0,0,0,0,0,0,0,-3.8886,-3.8886,-3.8862,-3.8859,-3.8854,-3.8827,-3.885,-3.8841,-3.8787,-3.8811,-3.8781,-3.8778,-3.8774,-3.8773,-3.8771,-3.8797,-3.8796,-3.8749,-3.875,-3.875,-3.875,0,0,0,0,0,0,0,-3.8887,-3.8887,-3.8885,-3.8862,-3.8857,-3.8838,-3.8833,-3.8848,-3.8806,-3.8809,-3.8803,-3.88,-3.8772,-3.8771,-3.877,-3.8795,-3.8749,-3.875,-3.875,-3.8751,-3.886,-3.8863,0,0,0,0,0,0,-3.8895,-3.8888,-3.8886,-3.8884,-3.8865,-3.884,-3.8834,-3.8838,-3.8806,-3.8799,-3.8802,-3.8796,-3.877,-3.8769,-3.8768,-3.8826,-3.875,-3.8751,-3.8751,-3.8858,-3.8861,-3.8863,0,0,0,0,0,0,-3.8895,-3.8895,-3.8888,-3.8884,-3.8882,-3.8842,-3.8847,-3.8838,-3.8837,-3.8801,-3.8793,-3.8809,-3.8769,-3.8767,-3.8791,-3.8824,-3.8751,-3.8752,-3.8855,-3.8859,-3.8862,-3.8943,0,0,0,0,0,0,-3.8895,-3.8896,-3.8916,-3.8885,-3.8882,-3.8912,-3.8849,-3.8839,-3.8839,-3.8831,-3.8805,-3.8799,-3.8767,-3.8791,-3.8792,-3.8823,-3.8752,-3.8852,-3.8857,-3.8861,-3.8937,-3.8949,-3.8959,0,0,0,0,0,-3.8896,-3.894,-3.8917,-3.8917,-3.8906,-3.8914,-3.8912,-3.8874,-3.8842,-3.8861,-3.8837,-3.8799,-3.882,-3.8794,-3.8795,-3.8827,-3.885,-3.8855,-3.8861,-3.8932,-3.8947,-3.8959,0,0,0,0,0,0,-3.8976,-3.8936,-3.8909,-3.8945,-3.8934,-3.8901,-3.8924,-3.8891,-3.8888,-3.8881,-3.8834,-3.8829,-3.8859,-3.8846,-3.8817,-3.8875,-3.8829,-3.8835,-3.8883,-3.8896,-3.8907,-3.8909,-3.8753,0,0,0,0,0,-3.8998,-3.9007,-3.8971,-3.9007,-3.9002,-3.8964,-3.8966,-3.8938,-3.8924,-3.8918,-3.8897,-3.8885,-3.8888,-3.8891,-3.8893,-3.8935,-3.8927,-3.8957,-3.8968,-3.8977,-3.8983,-3.9003,-3.9015,-3.8882,-3.8881,-3.8881,0,0,-3.9043,-3.9022,-3.9031,-3.9022,-3.901,-3.902,-3.8961,-3.8975,-3.8982,-3.8921,-3.8942,-3.8925,-3.8909,-3.8942,-3.8955,-3.8931,-3.9018,-3.8984,-3.8992,-3.8992,-3.901,-3.9022,-3.9033,-3.8885,-3.8885,-3.8884,0,0,-3.9131,-3.9116,-3.9143,-3.9132,-3.9113,-3.9087,-3.9094,-3.9066,-3.9052,-3.9073,-3.9027,-3.9034,-3.9042,-3.9031,-3.9027,-3.9109,-3.9074,-3.9111,-3.9168,-3.9188,-3.9198,-3.9207,-3.9235,-3.9246,-3.9117,-3.9117,-3.9117,0,-3.9189,-3.9203,-3.9162,-3.9178,-3.9175,-3.912,-3.9146,-3.9137,-3.912,-3.9119,-3.9093,-3.91,-3.9085,-3.9114,-3.9134,-3.9132,-3.9138,-3.9114,-3.92,-3.9209,-3.9216,-3.9243,-3.9254,-3.9122,-3.9121,-3.9121,-3.912,0,-3.9276,-3.9286,-3.931,-3.9294,-3.9294,-3.9316,-3.9277,-3.9282,-3.9253,-3.923,-3.9251,-3.9231,-3.9226,-3.9231,-3.9204,-3.9256,-3.9242,-3.9208,-3.9161,-3.9234,-3.9258,-3.9268,-3.9128,-3.9127,-3.9125,-3.9124,0,0,-3.9413,-3.9373,-3.9382,-3.9374,-3.9349,-3.9356,-3.9375,-3.937,-3.9374,-3.9364,-3.9378,-3.9385,-3.9354,-3.9349,-3.932,-3.9337,-3.9402,-3.9301,-3.93,-3.932,-3.9457,-3.9481,-3.9494,-3.9379,-3.9381,-3.9382,-3.9458,0,-3.9494,-3.9523,-3.9486,-3.9523,-3.9532,-3.9479,-3.9495,-3.9481,-3.946,-3.9464,-3.944,-3.9445,-3.9404,-3.94,-3.9415,-3.9391,-3.9429,-3.9385,-3.9391,-3.9391,-3.9396,-3.9506,-3.9533,-3.9605,-3.9467,-3.9468,-3.947,0,-3.9592,-3.9586,-3.9625,-3.9595,-3.9598,-3.9613,-3.9604,-3.9609,-3.9592,-3.9575,-3.9569,-3.9534,-3.955,-3.9504,-3.9525,-3.9496,-3.9496,-3.9484,-3.9486,-3.9485,-3.9434,-3.9507,-3.9628,-3.9638,-3.9484,-3.9483,-3.9482,0,-3.9687,-3.9689,-3.9711,-3.9706,-3.9673,-3.9685,-3.9672,-3.9652,-3.9651,-3.9644,-3.9643,-3.9638,-3.9635,-3.9632,-3.9596,-3.9567,-3.9621,-3.9572,-3.9607,-3.9608,-3.962,-3.9619,-3.9741,-3.9622,-3.9622,-3.9621,-3.9621,0,-3.9781,-3.9806,-3.9753,-3.9767,-3.9793,-3.975,-3.9777,-3.9758,-3.9741,-3.975,-3.9704,-3.9714,-3.9666,-3.9671,-3.9643,-3.9663,-3.9663,-3.9649,-3.9641,-3.9653,-3.9654,-3.9651,-3.9645,-3.9624,-3.9624,-3.9623,-3.9623,0,-3.9891,-3.9857,-3.9878,-3.9845,-3.9837,-3.9858,-3.9829,-3.984,-3.9816,-3.9827,-3.9828,-3.979,-3.9792,-3.9756,-3.9752,-3.9733,-3.9765,-3.9749,-3.9771,-3.9765,-3.9801,-3.9798,-3.9925,-3.9939,-3.9811,-3.9813,-3.9814,0,-3.9953,-3.9971,-3.9939,-3.9942,-3.9931,-3.9936,-3.9934,-3.9892,-3.9892,-3.9873,-3.9886,-3.9885,-3.9881,-3.9887,-3.9859,-3.9855,-3.9838,-3.9882,-3.9837,-3.9847,-3.9837,-3.9836,-3.9837,-3.9892,-3.9893,-3.9895,-3.9896,0,-4.0066,-4.0047,-4.0047,-4.004,-4.0039,-4.0032,-4.0022,-4.0026,-3.998,-3.9983,-3.9984,-3.9981,-3.9976,-3.9975,-3.9965,-3.9951,-3.9916,-3.991,-3.9918,-3.9929,-3.9941,-3.9934,-3.9796,-3.9908,-3.9906,-3.9905,-3.9905,-3.9904,-4.0153,-4.0165,-4.0145,-4.0145,-4.0133,-4.0124,-4.0133,-4.0109,-4.0109,-4.0101,-4.0076,-4.0082,-4.0063,-4.0046,-4.0035,-4.0039,-4.0017,-4.0028,-4.003,-4.0034,-4.004,-3.9941,-4.0037,-4.0037,-4.0036,-4.0036,-4.0036,0,-4.0262,-4.0246,-4.0247,-4.0233,-4.0233,-4.02,-4.0186,-4.0189,-4.0194,-4.0179,-4.0176,-4.0177,-4.0176,-4.0147,-4.0141,-4.0149,-4.0133,-4.0149,-4.0148,-4.0145,-4.0061,-4.0054,-4.0163,-4.0163,-4.0163,-4.0163,-4.0163,-4.0163,-4.0319,-4.0338,-4.0317,-4.033,-4.0313,-4.0318,-4.0313,-4.0305,-4.0292,-4.0295,-4.0293,-4.0275,-4.0254,-4.0246,-4.0243,-4.0234,-4.0234,-4.0256,-4.0242,-4.0163,-4.0151,-4.0139,-4.0133,-4.0257,-4.0257,-4.0326,-4.0327,-4.0327]}]]